Location: Unspecified
(0.0000°N, 0.0000°E)
Time: 18:32:57
(UTC+00:00)

Transit 2A Rocket - Visible Passes

Search period start: 18 January 2020 00:00
Search period end: 28 January 2020 00:00
Orbit: 593 x 910 km, 66.7° (Epoch: 17 January)

Date Brightness Start Highest point End Pass type
(mag) Time Alt. Az. Time Alt. Az. Time Alt. Az.
18 Jan 4.6 05:29:15 10° SSW 05:34:05 78° WNW 05:38:32 10° NNE visible
19 Jan 5.9 04:46:59 10° S 04:51:37 44° ESE 04:55:52 10° NE visible
20 Jan 7.3 04:05:34 10° SSE 04:09:03 20° ESE 04:12:20 10° ENE visible
21 Jan 4.9 05:04:23 10° SW 05:08:55 43° WNW 05:13:07 10° N visible
22 Jan 4.7 04:21:39 10° SSW 04:26:28 78° ESE 04:30:54 10° NNE visible
